FLOCK 2K-14 (42892 NORAD) Tracking and Keplerian Element Data

This shows tracking and keplerian element data for the satellite.

Feedback or suggestion? Click here.




ElementValue
Catalog42892
NameFLOCK 2K-14
Epoch Orbit3282
Epoch Day45.61087245
Epoch Year2018
RAAN308.4642
Inclination96.9926
Eccentricity0.0012575
Argument of Perigee173.9785
Mean Anonmoly186.1613
Mean Motion15.35594221
Decay Rate7.472E-05
L11 42892U 17042BV 18045.61087245 .00007472 00000-0 21759-3 0 9997
L22 42892 96.9926 308.4642 0012575 173.9785 186.1613 15.35594221 32823

Live tracking and technical data element details for FLOCK 2K-14 (NORAD 42892). FLOCK 2K-14 can be tracked NOW for your location showing map with azimuth and elevation plus other details from your city location.

Track the satellite on the map from your city or location and see movement details for azimuth, elevation, latitude, longitude, range, height, and movement on the map or in text.







IsCatalogInMostPopularTable: catalog: 42892, numindb: 141
Update: records affected: 1



GetName: 42892 FLOCK 2K-14

Hit Count: updated at: Tue, 18 Dec 2018 22:08:38 GMT